Weather History for KRRL - September, 2013

Change the Weather History Date:

Thursday, September 5, 2013

  Actual Average Record
Temperature  
Mean Temperature 54 °F -  
Max Temperature 71 °F 74 °F 94 °F (1933)
Min Temperature 38 °F 46 °F 31 °F (1974)
Degree Days  
Heating Degree Days 11    
Growing Degree Days 4 (Base 50)    
Moisture  
Dew Point 48 °F    
Average Humidity 77    
Maximum Humidity 100    
Minimum Humidity 48    
Precipitation  
Precipitation 0.00 in - - ()
Sea Level Pressure  
Sea Level Pressure 30.26 in    
Wind  
Wind Speed 1 mph (SSE)    
Max Wind Speed 7 mph    
Max Gust Speed -    
Visibility 9 miles    
Events Fog    
Averages and records for this station are not official NWS values.
T = Trace of Precipitation, MM = Missing Value Source: NWS Daily Summary

Daily Weather History Graph

Daily Weather History Graph

Search for Another Location

Airport or City:

Trip Planner

Search our weather history database for the weather conditions in past years. The results will help you decide how hot, cold, wet, or windy it might be!

Date:

Astronomy

Sep. 05, 2013 Rise Set
Actual Time 6:25 AM CDT 7:28 PM CDT
Civil Twilight 5:55 AM CDT 7:58 PM CDT
Nautical Twilight 5:19 AM CDT 8:34 PM CDT
Astronomical Twilight 4:41 AM CDT 9:12 PM CDT
Moon 6:40 AM CDT (9/5) 7:15 PM CDT (9/5)
Length of Visible Light 14h 02m
Length of Day
13h 02m
New Moon, 0% of the Moon is Illuminated
Sep 5
New Moon
Sep 12
First Quarter
Sep 19
Full
Sep 26
Last Quarter
Oct 4
New

Hourly Weather History & Observations

Time (CDT) Temp. Windchill Dew Point Humidity Pressure Visibility Wind Dir Wind Speed Gust Speed Precip Events Conditions
12:15 AM 48.4 °F - 46.4 °F 93% 30.21 in 10.0 mi Calm Calm - N/A   Clear
12:35 AM 49.3 °F - 48.4 °F 97% 30.21 in 10.0 mi Calm Calm - N/A   Clear
12:55 AM 46.0 °F - 45.1 °F 97% 30.22 in 10.0 mi Calm Calm - N/A   Clear
1:15 AM 46.8 °F - 46.0 °F 97% 30.22 in 10.0 mi Calm Calm - N/A   Clear
1:35 AM 46.6 °F - 45.9 °F 97% 30.22 in 10.0 mi Calm Calm - N/A   Clear
1:55 AM 45.1 °F - 44.8 °F 99% 30.22 in 5.0 mi Calm Calm - N/A   Clear
2:15 AM 46.0 °F - 46.0 °F 100% 30.22 in 5.0 mi Calm Calm - N/A   Clear
2:35 AM 43.7 °F - 43.5 °F 99% 30.23 in 10.0 mi Calm Calm - N/A   Clear
2:55 AM 43.0 °F - 41.5 °F 95% 30.23 in 1.8 mi Calm Calm - N/A   Mist
3:15 AM 43.5 °F - 43.2 °F 99% 30.24 in 10.0 mi Calm Calm - N/A   Clear
3:35 AM 44.8 °F - 44.8 °F 100% 30.24 in 4.0 mi Calm Calm - N/A   Clear
3:55 AM 43.5 °F - 43.5 °F 100% 30.24 in 0.8 mi Calm Calm - N/A   Mist
4:15 AM 40.6 °F - 40.5 °F 99% 30.25 in 0.5 mi Calm Calm - N/A Fog Fog
4:35 AM 41.4 °F - 41.2 °F 99% 30.25 in 10.0 mi Calm Calm - N/A   Clear
4:55 AM 41.4 °F - 41.4 °F 100% 30.25 in - Calm Calm - N/A   Unknown
5:15 AM 39.6 °F - 39.4 °F 99% 30.26 in 1.0 mi Calm Calm - N/A   Mist
5:35 AM 38.7 °F 35.2 °F 38.7 °F 100% 30.27 in 10.0 mi NE 4.6 mph - N/A   Clear
5:55 AM 41.2 °F - 41.2 °F 100% 30.28 in 10.0 mi Calm Calm - N/A   Scattered Clouds
6:15 AM 41.7 °F - 41.7 °F 100% 30.28 in 10.0 mi Calm Calm - N/A   Scattered Clouds
6:35 AM 38.5 °F - 38.1 °F 99% 30.29 in 7.0 mi Calm Calm - N/A   Clear
6:55 AM 41.7 °F - 41.4 °F 99% 30.29 in 10.0 mi Calm Calm - N/A   Clear
7:15 AM 42.3 °F - 41.9 °F 99% 30.31 in 10.0 mi Calm Calm - N/A   Clear
7:35 AM 46.4 °F 45.2 °F 45.5 °F 97% 30.31 in 10.0 mi East 3.5 mph - N/A   Clear
7:55 AM 49.3 °F - 45.0 °F 85% 30.31 in 10.0 mi SE 3.5 mph - N/A   Clear
8:15 AM 51.6 °F - 46.0 °F 81% 30.31 in 10.0 mi Calm Calm - N/A   Clear
8:35 AM 53.4 °F - 46.8 °F 78% 30.31 in 10.0 mi SE 4.6 mph - N/A   Clear
8:55 AM 55.0 °F - 47.1 °F 75% 30.32 in 10.0 mi SE 5.8 mph - N/A   Clear
9:15 AM 56.8 °F - 47.7 °F 71% 30.32 in 10.0 mi SE 3.5 mph - N/A   Clear
9:35 AM 58.1 °F - 47.8 °F 69% 30.32 in 10.0 mi SE 5.8 mph - N/A   Clear
9:55 AM 59.2 °F - 48.0 °F 66% 30.31 in 10.0 mi SE 4.6 mph - N/A   Clear
10:15 AM 60.4 °F - 48.4 °F 64% 30.31 in 10.0 mi SSE 5.8 mph - N/A   Clear
10:35 AM 61.7 °F - 48.9 °F 63% 30.31 in 10.0 mi SSE 3.5 mph - N/A   Clear
10:55 AM 62.6 °F - 49.8 °F 63% 30.31 in 10.0 mi SSE 3.5 mph - N/A   Clear
11:15 AM 63.0 °F - 49.8 °F 62% 30.31 in 10.0 mi South 4.6 mph - N/A   Clear
11:35 AM 64.4 °F - 51.1 °F 62% 30.30 in 10.0 mi SE 6.9 mph - N/A   Clear
11:55 AM 64.9 °F - 51.4 °F 62% 30.30 in 10.0 mi Calm Calm - N/A   Clear
12:15 PM 66.4 °F - 51.1 °F 58% 30.30 in 10.0 mi SSE 4.6 mph - N/A   Clear
12:35 PM 66.6 °F - 50.7 °F 57% 30.29 in 10.0 mi SSW 6.9 mph - N/A   Clear
12:55 PM 67.3 °F - 51.1 °F 56% 30.29 in 10.0 mi South 3.5 mph - N/A   Clear
1:15 PM 67.3 °F - 50.5 °F 55% 30.28 in 10.0 mi Calm Calm - N/A   Clear
1:35 PM 68.0 °F - 51.4 °F 55% 30.28 in 10.0 mi SE 5.8 mph - N/A   Clear
1:55 PM 69.1 °F - 52.5 °F 55% 30.27 in 10.0 mi SSE 3.5 mph - N/A   Clear
2:15 PM 68.9 °F - 51.4 °F 54% 30.27 in 10.0 mi South 3.5 mph - N/A   Clear
2:35 PM 69.6 °F - 51.6 °F 53% 30.27 in 10.0 mi WSW 4.6 mph - N/A   Clear
2:55 PM 70.0 °F - 49.6 °F 48% 30.26 in 10.0 mi Calm Calm - N/A   Clear
3:15 PM 70.9 °F - 50.7 °F 49% 30.26 in 10.0 mi Calm Calm - N/A   Clear
3:35 PM 70.9 °F - 52.0 °F 51% 30.25 in 10.0 mi South 3.5 mph - N/A   Clear
3:55 PM 70.5 °F - 51.8 °F 51% 30.25 in 10.0 mi Calm Calm - N/A   Clear
4:15 PM 70.7 °F - 51.8 °F 51% 30.25 in 10.0 mi SSE 5.8 mph - N/A   Clear
4:35 PM 70.9 °F - 51.4 °F 50% 30.24 in 10.0 mi South 3.5 mph - N/A   Clear
4:55 PM 70.7 °F - 51.6 °F 51% 30.24 in 10.0 mi SSE 5.8 mph - N/A   Clear
5:15 PM 70.7 °F - 51.8 °F 51% 30.24 in 10.0 mi Calm Calm - N/A   Clear
5:35 PM 70.5 °F - 52.5 °F 53% 30.23 in 10.0 mi Calm Calm - N/A   Clear
5:55 PM 70.0 °F - 52.2 °F 53% 30.23 in 10.0 mi Calm Calm - N/A   Clear
6:15 PM 69.6 °F - 52.2 °F 54% 30.23 in 10.0 mi SSW 4.6 mph - N/A   Clear
6:35 PM 68.9 °F - 52.3 °F 55% 30.22 in 10.0 mi South 3.5 mph - N/A   Clear
6:55 PM 67.6 °F - 52.7 °F 59% 30.22 in 10.0 mi South 3.5 mph - N/A   Clear
7:15 PM 64.6 °F - 53.4 °F 67% 30.22 in 10.0 mi Calm Calm - N/A   Clear
7:35 PM 62.2 °F - 53.8 °F 74% 30.22 in 10.0 mi Calm Calm - N/A   Clear
7:55 PM 57.7 °F - 53.4 °F 85% 30.22 in 10.0 mi Calm Calm - N/A   Clear
8:15 PM 57.0 °F - 53.4 °F 88% 30.22 in 10.0 mi Calm Calm - N/A   Clear
8:35 PM 55.4 °F - 52.9 °F 91% 30.22 in 10.0 mi Calm Calm - N/A   Clear
8:55 PM 56.1 °F - 52.3 °F 87% 30.23 in 10.0 mi Calm Calm - N/A   Clear
9:15 PM 56.1 °F - 52.3 °F 87% 30.23 in 10.0 mi Calm Calm - N/A   Clear
9:35 PM 56.5 °F - 52.3 °F 86% 30.23 in 10.0 mi Calm Calm - N/A   Clear
9:55 PM 56.3 °F - 52.2 °F 86% 30.22 in 10.0 mi SE 4.6 mph - N/A   Clear
10:15 PM 58.1 °F - 52.5 °F 82% 30.22 in 10.0 mi SSE 3.5 mph - N/A   Clear
10:35 PM 57.6 °F - 52.2 °F 82% 30.23 in 10.0 mi Calm Calm - N/A   Clear
10:55 PM 54.9 °F - 50.9 °F 86% 30.22 in 10.0 mi Calm Calm - N/A   Clear
11:15 PM 52.3 °F - 49.8 °F 91% 30.22 in 10.0 mi Calm Calm - N/A   Clear
11:35 PM 49.6 °F - 47.8 °F 94% 30.22 in 10.0 mi Calm Calm - N/A   Clear
11:55 PM 51.6 °F - 49.1 °F 91% 30.22 in 10.0 mi Calm Calm - N/A   Clear